www.pogodaiklimat.ru

Погода и климат >> Архив погоды >> Нигер >> Агадес


ПОГОДА в Агадесе

  • Прогноз погоды в Агадесе
  • Монитор погоды в Агадесе

АРХИВ ПОГОДЫ в Агадесе

Время (UTC), дата Ветер
(напр.,м/с)
 
Видим.   Явления Облачность Т
(С)
Тd
(С)
f
(%)
Тe
(С)
Тes
(С)
Комфортность P
(гПа)
Po
(гПа)
Тmin
(С)
Tmax
(С)
R
(мм)
R24
(мм)
S
(см)
06 15.05 С 4 3000 м пыль 9/0
[Ac As]
+32.6 +13.1 31 +34 +34 очень
жарко
1005.9 952.0 +27.0 0.0
09 15.05 З 14 7000 м пыль 9/0
[Ac cast Ci sp]
+36.8 +14.3 26 +38 +38 очень
душно
1007.3 953.7
12 15.05 З 14 10 км 9/0
[Ac cast Cs]
+39.3 +14.8 24 +40 +40 очень
душно
1006.3 952.8
15 15.05 С 30 800 м пыльная буря {метель} 9/5 1000 м
[Cb cap Ac cast Ci sp]
+35.7 +18.3 36 +40 +40 очень
душно
1005.5 951.5
18 15.05 З 8 8000 м гроза, ливневой дождь 9/3 1500 м
[Cb cap Ac As]
+30.0 +19.7 54 +36 +36 очень
душно
1006.2 951.6 +41.5 2
06 16.05 штиль 0 10 км 8/0
[Ac cast Ci sp]
+27.5 +20.9 67 +34 +35 очень
душно
1007.0 952.0 +26.5 2
09 16.05 СЗ 6 10 км 6/0
[Ci sp]
+35.0 +15.7 32 +37 +42 очень
душно
1006.8 952.6
12 16.05 С 12 10 км 6/0
[Ci sp]
+41.8 +9.4 14 +40 +40 очень
жарко
1004.9 951.3
15 16.05 С 10 10 км 6/0
[Ci sp]
+42.3 +10.2 15 +41 +41 опасность
перегрева
1003.1 949.5
18 16.05 штиль 0 10 км 6/0
[Ci sp]
+39.5 +9.8 17 +38 +38 очень
жарко
949.9 +43.0
06 17.05 СЗ 2 10 км 9/0
[Cs]
+28.6 +3.3 20 +27 +28 жарко 1006.2 952.2 +28.5
09 17.05 СЗ 2 10 км 9/0
[Cs]
+37.0 +6.9 16 +35 +47 очень
жарко
1007.0 953.1
12 17.05 штиль 0 10 км 9/0
[Ac trans Cs]
+40.0 +7.8 14 +38 +61 опасность
солнечного
удара
1006.6 952.8
15 17.05 СВ 8 10 км 9/0
[Cs]
+41.5 +8.2 14 +39 +41 очень
жарко
1004.0 950.4
18 17.05 штиль 0 10 км 9/0
[Cs]
+39.0 +7.6 15 +37 +37 очень
жарко
1004.0 950.1 +42.1
06 18.05 штиль 0 10 км 6/0
[Ci sp]
+25.3 +4.4 26 +25 +26 комфорт 1005.9 951.5 +23.4
09 18.05 ЮЗ 6 10 км 3/0
[Ci sp]
+36.8 +7.4 17 +35 +40 очень
жарко
1006.1 952.2
12 18.05 В 6 10 км 1/1 1200 м
[Cu hum]
+40.8 +4.5 11 +38 +45 очень
жарко
1005.3 951.5
15 18.05 СВ 6 10 км 1/0
[Ac trans]
+42.0 +6.7 12 +39 +43 очень
жарко
1003.7 949.8
18 18.05 штиль 0 7000 м пыль 6/0
[Ci sp]
+39.8 +9.0 16 +38 +38 очень
жарко
1004.1 949.9 +43.2
06 19.05 штиль 0 10 км 5/0
[Ci sp]
+26.8 +4.1 23 +26 +27 жарко 1005.9 951.8 +23.5
09 19.05 З 12 10 км 6/0
[Ci sp]
+37.8 +14.9 26 +39 +39 очень
душно
1006.4 952.8
12 19.05 С 4 10 км 6/1 1200 м
[Cu hum Ci sp]
+41.5 +13.5 19 +41 +53 опасность
перегрева
1005.0 951.4
15 19.05 штиль 0 10 км 6/1 1200 м
[Cu hum Ci sp]
+42.8 +12.5 17 +42 +52 опасность
перегрева
1002.8 949.2
18 19.05 З 6 10 км 6/0
[Ac trans Ci sp]
+40.3 +11.9 19 +40 +40 очень
жарко
1003.0 949.1 +43.9
06 20.05 З 10 10 км 8/0
[Ac trans Ci sp]
+33.0 +18.0 41 +37 +37 очень
душно
1005.1 951.5 +29.0
09 20.05 З 16 10 км 6/0
[Ac trans Ci sp]
+36.5 +20.5 39 +43 +43 опасность
перегрева
1007.3 953.4
12 20.05 З 12 10 км 9/4 1200 м
[Cu med, cong Ac trans Ci sp]
+40.0 +19.8 31 +45 +45 опасность
перегрева
1005.3 951.5
15 20.05 ЮЗ 17 10 км 9/3 1200 м
[Cb cap Ac As Ci sp]
+37.0 +17.6 32 +40 +40 очень
душно
1004.2 950.1
18 20.05 З 16 10 км 9/1 1200 м
[Cb cap Ac As]
+34.5 +17.1 36 +38 +38 очень
душно
1004.5 950.5 +42.1
06 21.05 З 18 10 км 9/0
[Ac As]
+29.5 +19.6 55 +35 +35 очень
душно
1006.9 952.5 +29.5
09 21.05 З 16 10 км 10/0
[Ac cast Cs]
+35.0 +17.8 36 +39 +39 очень
душно
1008.1 953.9
12 21.05 СЗ 19 4000 м 10/0
[Ac cast Cs]
+38.2 +13.5 23 +38 +38 очень
жарко
1007.1 953.1
15 21.05 СЗ 15 4000 м пыль 10/0
[Ac cast Cs]
+38.6 +17.0 28 +41 +41 опасность
перегрева
1005.3 951.4
18 21.05 СЗ 10 3000 м пыль 9/0
[Ac cast Cs]
+37.0 +16.6 30 +39 +39 очень
душно
1005.5 951.4 +40.0

 

Местоположение метеостанции Агадес (Нигер): широта 16.97 долгота 7.97 высота над уровнем моря 502 м.

В архиве по умолчанию представлена погода в Агадесе за последнюю неделю. Архивные данные за месяц целиком и за предыдущие месяцы, начиная с января 2011 года, Вы можете получить, выбрав интересующий диапазон дат из раскрывающегося списка и нажав кнопку "Ввод!".


*Определитесь, кто Вы:
робот инопланетянин человек

Внимание! Время в таблицах - всемирное. Для получения местного времени необходимо прибавить поправку, которая равна 1 ч.

Смотрите также архив погоды в соседних городах и на ближайших метеорологических станциях:

Погода в Зиндере (Нигер) (371 км)
Погода в Тахве (Нигер) (371 км)
Погода в Ин-Геззаме (Алжир) (372 км)
Погода в Ин-Геззам аэропорту (Алжир) (372 км)
Погода в Маради (Нигер) (401 км)
Погода в Гуре (Нигер) (416 км)
Погода в Кацине (Нигерия) (440 км)
Погода в Анебарака (Алжир) (445 км)
Погода в Магарьа (Нигер) (456 км)
Погода в Вирнин-Конни (Нигер) (458 км)

Пояснения к столбцам:

Ветер - указаны скорость ветра в м/с - средняя за 10 мин, порывы в срок и между сроками (в фигурных скобках) и направление, откуда дует ветер: С - северный, СВ - северо-восточный, В - восточный, ЮВ - юго-восточный, Ю - южный, ЮЗ - юго-западный, З - западный, СЗ - северо-западный.
Видимость - горизонтальная дальность видимости в метрах или километрах. При видимости от 1 до 10 км при отсутствии осадков обычно наблюдается дымка, при ухудшении видимости до 1 км и менее - туман. В сухую погоду видимость может ухудшаться дымом, пылью или мглою.
Явления - указаны атмосферные явления, наблюдавшиеся в срок или в последний час перед сроком; фигурными скобками обозначены явления, наблюдавшиеся между сроками (за 1-3 часа до срока); квадратными скобками обозначены град или гололедные отложения с указанием их диаметра в мм.
Облачность - указаны через наклонную черту общая и нижняя облачность в баллах и высота нижней границы облаков в метрах; квадратными скобками обозначены формы облаков: Ci - перистые, Cs - перисто-слоистые, Cc - перисто-кучевые, Ac - высококучевые, As - высокослоистые, Sc - слоисто-кучевые, Ns - слоисто-дождевые, Cu - кучевые, Cb - кучево-дождевые. Подробнее классификацию облаков см. в Атласе облаков (PDF).
T - Температура воздуха - температура, измеренная на высоте 2 м над землей.
Td - Температура точки росы - температура, при понижении до которой содержащийся в воздухе водяной пар достигнет насыщения.
f - Относительная влажность воздуха - влажноcть воздуха, измеренная на высоте 2 м над землей.
Te - Эффективная температура - температура, которую ощущает одетый по сезону человек в тени. Характеристика душности погоды. При расчете учитывается влияние влажности воздуха и скорости ветра на теплоощущения человека.
Tes - Эффективная температура на солнце - температура, которую ощущает человек, с поправкой на солнечный нагрев. Характеристика знойности погоды. Зависит от высоты солнца над горизонтом, облачности и скорости ветра. Ночью, в пасмурную погоду, а также при ветре 12 м/с и более поправка равна нулю.
P - Атмосферное давление - приведенное к уровню моря атмосферное давление.
Po - Атмосферное давление - измеренное на уровне метеостанции атмосферное давление.
Tmin - Минимальная температура - минимум температуры воздуха на высоте 2 м над землей.
Tmax - Максимальная температура - максимум температуры воздуха на высоте 2 м над землей.
R - Количество осадков - Количество выпавших осадков за период времени, мм. При наведении курсора мыши на число - период времени, за который выпало указанное количество осадков.
R24 - Количество осадков - Количество выпавших осадков за 24 часа, мм.
S - Снежный покров - Высота снежного покрова, см. При наведении курсора мыши на число - состояние снежного покрова и степень покрытия местности в баллах.